Location: Chillicothe
(39.7950°N, 93.5520°W)
Time: 09:13:23
(UTC-05:00)

A-11 Canister half - All Passes

Search period start: 16 October 2019 00:00
Search period end: 26 October 2019 00:00
Orbit: 1514 x 1686 km, 47.2° (Epoch: 16 October)

Date Brightness Start Highest point End Pass type
(mag) Time Alt. Az. Time Alt. Az. Time Alt. Az.
16 Oct - 02:06:15 10° S 02:14:14 28° SE 02:21:59 10° ENE visible
16 Oct - 04:08:19 10° SW 04:18:16 81° SSE 04:27:53 10° ENE visible
16 Oct - 06:14:09 10° W 06:23:47 59° N 06:33:06 10° ENE visible
16 Oct - 08:20:27 10° WNW 08:29:56 62° NNE 08:39:08 10° E daylight
16 Oct - 10:25:47 10° WNW 10:35:07 69° SW 10:44:14 10° SE daylight
16 Oct - 12:32:29 10° W 12:38:40 20° SW 12:44:50 10° SSW daylight
17 Oct - 01:43:39 10° S 01:51:23 26° SE 01:58:54 10° ENE visible
17 Oct - 03:45:23 10° SW 03:55:20 77° SE 04:04:58 10° ENE visible
17 Oct - 05:51:07 10° W 06:00:48 60° NNW 06:10:09 10° ENE visible
17 Oct - 07:57:27 10° WNW 08:06:58 61° NNE 08:16:10 10° E daylight
17 Oct - 10:02:50 10° WNW 10:12:13 73° SW 10:21:23 10° SE daylight
17 Oct - 12:09:19 10° W 12:15:52 22° SW 12:22:24 10° S daylight
18 Oct - 01:21:06 10° S 01:28:31 24° SE 01:35:47 10° E visible
18 Oct - 03:22:28 10° SW 03:32:25 74° SE 03:42:02 10° ENE visible
18 Oct - 05:28:04 10° W 05:37:49 61° NNW 05:47:12 10° ENE visible
18 Oct - 07:34:27 10° WNW 07:43:59 60° NNE 07:53:12 10° E daylight
18 Oct - 09:39:52 10° WNW 09:49:19 76° SW 09:58:33 10° SE daylight
18 Oct - 11:46:09 10° W 11:53:04 24° SW 11:59:55 10° S daylight
19 Oct - 00:58:34 10° S 01:05:41 22° SE 01:12:39 10° E visible
19 Oct - 02:59:33 10° SW 03:09:30 71° SE 03:19:06 10° ENE visible
19 Oct - 05:05:01 10° W 05:14:49 62° NNW 05:24:15 10° ENE visible
19 Oct - 07:11:27 10° WNW 07:21:00 59° N 07:30:13 10° E daylight
19 Oct - 09:16:55 10° WNW 09:26:26 80° SSW 09:35:41 10° SE daylight
19 Oct - 11:23:02 10° WNW 11:30:15 26° SW 11:37:23 10° S daylight
20 Oct - 00:36:05 10° SSE 00:42:50 21° SE 00:49:28 10° E visible
20 Oct - 02:36:39 10° SW 02:46:35 67° SE 02:56:11 10° ENE visible
20 Oct - 04:41:59 10° W 04:51:50 64° NNW 05:01:19 10° ENE visible
20 Oct - 06:48:27 10° WNW 06:58:01 58° N 07:07:14 10° E visible
20 Oct - 08:53:57 10° WNW 09:03:32 83° SSW 09:12:48 10° SE daylight
20 Oct - 10:59:56 10° WNW 11:07:26 28° SW 11:14:49 10° S daylight
21 Oct - 00:13:39 10° SSE 00:20:00 19° SE 00:26:14 10° E night (unlit)
21 Oct - 02:13:46 10° SW 02:23:40 64° SE 02:33:15 10° ENE visible
21 Oct - 04:18:56 10° W 04:28:50 65° NNW 04:38:24 10° ENE visible
21 Oct - 06:25:26 10° WNW 06:35:01 57° N 06:44:16 10° E visible
21 Oct - 08:31:01 10° WNW 08:40:37 86° SSW 08:49:55 10° SE daylight
21 Oct - 10:36:51 10° WNW 10:44:37 30° SW 10:52:14 10° S daylight
21 Oct - 23:51:17 10° SSE 23:57:09 17° SE 00:02:56 10° E night (unlit)
22 Oct - 01:50:55 10° SW 02:00:45 61° SE 02:10:19 10° ENE visible
22 Oct - 03:55:55 10° W 04:05:51 67° NNW 04:15:27 10° ENE visible
22 Oct - 06:02:24 10° WNW 06:12:01 57° N 06:21:17 10° E visible
22 Oct - 08:08:02 10° WNW 08:17:43 90° SSW 08:27:02 10° ESE daylight
22 Oct - 10:13:48 10° WNW 10:21:47 32° SW 10:29:38 10° S daylight
22 Oct - 23:29:01 10° SSE 23:34:20 16° ESE 23:39:35 10° E night (unlit)
23 Oct - 01:28:03 10° SW 01:37:51 58° SE 01:47:22 10° ENE visible
23 Oct - 03:32:52 10° WSW 03:42:52 69° NNW 03:52:31 10° ENE visible
23 Oct - 05:39:23 10° WNW 05:49:02 56° N 05:58:19 10° E visible
23 Oct - 07:45:05 10° WNW 07:54:47 87° NNE 08:04:07 10° ESE daylight
23 Oct - 09:50:45 10° WNW 09:58:57 35° SW 10:07:00 10° SSE daylight
23 Oct - 23:06:50 10° SSE 23:11:30 14° ESE 23:16:06 10° E night (unlit)
24 Oct - 01:05:13 10° SSW 01:14:56 55° SE 01:24:25 10° ENE visible
24 Oct - 03:09:51 10° WSW 03:19:53 71° NNW 03:29:35 10° ENE visible
24 Oct - 05:16:21 10° WNW 05:26:01 56° N 05:35:20 10° E visible
24 Oct - 07:22:07 10° WNW 07:31:51 84° NNE 07:41:13 10° ESE daylight
24 Oct - 09:27:42 10° WNW 09:36:07 37° SW 09:44:20 10° SSE daylight
24 Oct - 22:44:51 10° SE 22:48:40 13° ESE 22:52:28 10° E night (unlit)
25 Oct - 00:42:23 10° SSW 00:52:02 52° SE 01:01:27 10° ENE visible
25 Oct - 02:46:50 10° WSW 02:56:54 73° NNW 03:06:39 10° ENE visible
25 Oct - 04:53:19 10° WNW 05:03:01 56° N 05:12:22 10° E visible
25 Oct - 06:59:09 10° WNW 07:08:55 81° NNE 07:18:18 10° ESE visible
25 Oct - 09:04:41 10° WNW 09:13:17 40° SW 09:21:40 10° SSE daylight
25 Oct - 22:23:09 10° SE 22:25:51 11° ESE 22:28:32 10° ESE night (unlit)
